HISPASAT 30W-6 (43228 NORAD) Tracking and Keplerian Element Data

This shows tracking and keplerian element data for the satellite.

Feedback or suggestion? Click here.




ElementValue
Catalog43228
NameHISPASAT 30W-6
Epoch Orbit269
Epoch Day316.93873227
Epoch Year2018
RAAN50.4014
Inclination0.0485
Eccentricity0.0002744
Argument of Perigee194.1192
Mean Anonmoly115.4782
Mean Motion1.00271511
Decay Rate-2.17E-06
L11 43228U 18023A 18316.93873227 -.00000217 00000-0 00000+0 0 9993
L22 43228 0.0485 50.4014 0002744 194.1192 115.4782 1.00271511 2699

Live tracking and technical data element details for HISPASAT 30W-6 (NORAD 43228). HISPASAT 30W-6 can be tracked NOW for your location showing map with azimuth and elevation plus other details from your city location.

Track the satellite on the map from your city or location and see movement details for azimuth, elevation, latitude, longitude, range, height, and movement on the map or in text.







IsCatalogInMostPopularTable: catalog: 43228, numindb: 189
Update: records affected: 1



GetName: 43228 HISPASAT 30W-6

Hit Count: updated at: Wed, 14 Nov 2018 16:02:35 GMT